TimeCST,TemperatureF,Dew PointF,Humidity,Sea Level PressureIn,VisibilityMPH,Wind Direction,Wind SpeedMPH,Gust SpeedMPH,PrecipitationIn,Events,Conditions,WindDirDegrees,DateUTC
12:15 AM,32.0,17.6,55,30.13,10.0,NNW,11.5,-,N/A,,Clear,340,2012-12-10 06:15:00
12:35 AM,32.0,17.6,55,30.12,10.0,North,9.2,-,N/A,,Clear,350,2012-12-10 06:35:00
12:55 AM,32.0,17.6,55,30.12,10.0,North,13.8,17.3,N/A,,Scattered Clouds,350,2012-12-10 06:55:00
1:15 AM,32.0,17.6,55,30.13,10.0,NNW,24.2,-,N/A,,Scattered Clouds,340,2012-12-10 07:15:00
1:35 AM,32.0,17.6,55,30.12,10.0,North,23.0,26.5,N/A,,Scattered Clouds,350,2012-12-10 07:35:00
1:55 AM,32.0,17.6,55,30.13,10.0,NNW,16.1,20.7,N/A,,Clear,340,2012-12-10 07:55:00
2:15 AM,32.0,17.6,55,30.14,10.0,NNW,21.9,28.8,N/A,,Scattered Clouds,330,2012-12-10 08:15:00
2:35 AM,32.0,17.6,55,30.14,10.0,NNW,17.3,25.3,N/A,Snow,Light Snow,340,2012-12-10 08:35:00
2:55 AM,32.0,23.0,69,30.14,4.0,NNW,21.9,25.3,N/A,Snow,Light Snow,340,2012-12-10 08:55:00
3:15 AM,30.2,23.0,75,30.13,7.0,North,17.3,21.9,N/A,Snow,Light Snow,350,2012-12-10 09:15:00
3:35 AM,32.0,21.2,64,30.14,10.0,NNW,16.1,19.6,N/A,,Scattered Clouds,340,2012-12-10 09:35:00
3:55 AM,30.2,19.4,64,30.14,10.0,NNW,19.6,-,N/A,,Clear,330,2012-12-10 09:55:00
4:15 AM,30.2,19.4,64,30.14,10.0,NNW,15.0,24.2,N/A,,Clear,340,2012-12-10 10:15:00
4:35 AM,28.4,17.6,64,30.14,10.0,NNW,19.6,24.2,N/A,,Clear,340,2012-12-10 10:35:00
4:55 AM,28.4,17.6,64,30.14,10.0,NNW,18.4,25.3,N/A,,Clear,340,2012-12-10 10:55:00
5:15 AM,28.4,17.6,64,30.14,10.0,NNW,15.0,25.3,N/A,,Clear,330,2012-12-10 11:15:00
5:35 AM,30.2,17.6,60,30.15,10.0,NNW,19.6,23.0,N/A,,Clear,340,2012-12-10 11:35:00
5:55 AM,28.4,17.6,64,30.16,10.0,NNW,17.3,23.0,N/A,,Clear,340,2012-12-10 11:55:00
6:15 AM,26.6,17.6,69,30.16,10.0,North,18.4,-,N/A,,Clear,350,2012-12-10 12:15:00
6:35 AM,26.6,17.6,69,30.16,10.0,NNW,16.1,20.7,N/A,,Clear,340,2012-12-10 12:35:00
6:55 AM,26.6,15.8,64,30.16,10.0,North,15.0,25.3,N/A,,Clear,350,2012-12-10 12:55:00
7:15 AM,24.8,15.8,69,30.18,10.0,NNW,10.4,-,N/A,,Clear,340,2012-12-10 13:15:00
7:35 AM,24.8,15.8,69,30.18,10.0,NNW,13.8,18.4,N/A,,Clear,340,2012-12-10 13:35:00
7:55 AM,24.8,14.0,64,30.18,10.0,North,12.7,-,N/A,,Clear,350,2012-12-10 13:55:00
8:35 AM,26.6,14.0,59,30.20,10.0,NW,13.8,-,N/A,,Clear,320,2012-12-10 14:35:00
8:55 AM,26.6,14.0,59,30.19,10.0,NNW,11.5,-,N/A,,Clear,330,2012-12-10 14:55:00
9:15 AM,26.6,14.0,59,30.18,10.0,NNW,13.8,17.3,N/A,,Clear,340,2012-12-10 15:15:00
9:35 AM,28.4,14.0,55,30.19,10.0,NNW,11.5,-,N/A,,Clear,330,2012-12-10 15:35:00
9:55 AM,30.2,14.0,51,30.19,10.0,WNW,8.1,16.1,N/A,,Clear,300,2012-12-10 15:55:00
10:15 AM,30.2,14.0,51,30.20,10.0,NW,11.5,-,N/A,,Clear,320,2012-12-10 16:15:00
10:35 AM,32.0,17.6,55,30.19,10.0,NNW,11.5,-,N/A,,Clear,330,2012-12-10 16:35:00
11:15 AM,32.0,15.8,51,30.18,10.0,NNW,12.7,-,N/A,,Clear,330,2012-12-10 17:15:00
11:35 AM,32.0,17.6,55,30.17,10.0,NNW,11.5,-,N/A,,Clear,340,2012-12-10 17:35:00
11:55 AM,33.8,17.6,52,30.17,10.0,NNW,10.4,-,N/A,,Clear,330,2012-12-10 17:55:00
12:15 PM,33.8,17.6,52,30.16,10.0,NW,11.5,20.7,N/A,,Clear,320,2012-12-10 18:15:00
12:35 PM,35.6,17.6,48,30.15,10.0,NW,9.2,-,N/A,,Clear,320,2012-12-10 18:35:00
12:55 PM,35.6,17.6,48,30.13,10.0,WNW,9.2,-,N/A,,Clear,300,2012-12-10 18:55:00
1:15 PM,35.6,17.6,48,30.12,10.0,NW,10.4,-,N/A,,Clear,310,2012-12-10 19:15:00
1:35 PM,37.4,17.6,45,30.12,10.0,North,8.1,-,N/A,,Clear,350,2012-12-10 19:35:00
1:55 PM,37.4,17.6,45,30.10,10.0,NW,9.2,16.1,N/A,,Clear,320,2012-12-10 19:55:00
2:15 PM,37.4,15.8,41,30.09,10.0,NNW,5.8,-,N/A,,Clear,330,2012-12-10 20:15:00
3:15 PM,39.2,14.0,36,30.09,10.0,WNW,8.1,-,N/A,,Clear,300,2012-12-10 21:15:00
3:35 PM,39.2,14.0,36,30.09,10.0,NW,6.9,-,N/A,,Clear,320,2012-12-10 21:35:00
3:55 PM,37.4,14.0,38,30.08,10.0,WNW,5.8,-,N/A,,Clear,290,2012-12-10 21:55:00
4:15 PM,37.4,14.0,38,30.09,10.0,NW,5.8,-,N/A,,Clear,310,2012-12-10 22:15:00
4:35 PM,37.4,14.0,38,30.09,10.0,West,5.8,-,N/A,,Clear,280,2012-12-10 22:35:00
4:55 PM,37.4,14.0,38,30.09,10.0,WNW,4.6,-,N/A,,Clear,290,2012-12-10 22:55:00
5:15 PM,35.6,14.0,41,30.10,10.0,WNW,4.6,-,N/A,,Clear,290,2012-12-10 23:15:00
5:35 PM,35.6,14.0,41,30.10,10.0,WNW,3.5,-,N/A,,Clear,300,2012-12-10 23:35:00
5:55 PM,33.8,12.2,41,30.09,10.0,Calm,Calm,-,N/A,,Clear,0,2012-12-10 23:55:00
6:15 PM,33.8,14.0,44,30.10,10.0,Calm,Calm,-,N/A,,Clear,0,2012-12-11 00:15:00
6:35 PM,32.0,12.2,44,30.10,10.0,NW,4.6,-,N/A,,Clear,320,2012-12-11 00:35:00
6:55 PM,32.0,12.2,44,30.09,10.0,Calm,Calm,-,N/A,,Clear,0,2012-12-11 00:55:00
7:15 PM,32.0,12.2,44,30.10,10.0,Calm,Calm,-,N/A,,Clear,0,2012-12-11 01:15:00
7:35 PM,32.0,14.0,48,30.09,10.0,SSW,3.5,-,N/A,,Clear,210,2012-12-11 01:35:00
7:55 PM,30.2,14.0,51,30.10,10.0,Calm,Calm,-,N/A,,Clear,0,2012-12-11 01:55:00
8:15 PM,30.2,14.0,51,30.09,10.0,Calm,Calm,-,N/A,,Clear,0,2012-12-11 02:15:00
8:35 PM,30.2,12.2,47,30.09,10.0,Calm,Calm,-,N/A,,Clear,0,2012-12-11 02:35:00
8:55 PM,32.0,14.0,48,30.09,10.0,Calm,Calm,-,N/A,,Clear,0,2012-12-11 02:55:00
9:15 PM,30.2,14.0,51,30.10,10.0,Calm,Calm,-,N/A,,Clear,0,2012-12-11 03:15:00
9:35 PM,30.2,14.0,51,30.10,10.0,Calm,Calm,-,N/A,,Clear,0,2012-12-11 03:35:00
9:55 PM,30.2,14.0,51,30.12,10.0,Calm,Calm,-,N/A,,Clear,0,2012-12-11 03:55:00
10:15 PM,30.2,12.2,47,30.12,10.0,Calm,Calm,-,N/A,,Clear,0,2012-12-11 04:15:00
10:35 PM,32.0,14.0,48,30.11,10.0,SSE,3.5,-,N/A,,Clear,160,2012-12-11 04:35:00
10:55 PM,28.4,14.0,55,30.11,10.0,SSE,5.8,-,N/A,,Clear,150,2012-12-11 04:55:00
11:35 PM,30.2,15.8,55,30.12,10.0,SSE,3.5,-,N/A,,Clear,160,2012-12-11 05:35:00
11:55 PM,28.4,14.0,55,30.11,10.0,South,5.8,-,N/A,,Clear,180,2012-12-11 05:55:00